TimeMDT,TemperatureF,Dew PointF,Humidity,Sea Level PressureIn,VisibilityMPH,Wind Direction,Wind SpeedMPH,Gust SpeedMPH,PrecipitationIn,Events,Conditions,WindDirDegrees,DateUTC
12:53 AM,54.0,19.0,25,29.74,10.0,ENE,5.8,-,N/A,,Clear,60,2013-03-21 06:53:00
1:53 AM,53.1,19.0,26,29.72,10.0,WNW,5.8,-,N/A,,Clear,290,2013-03-21 07:53:00
2:53 AM,50.0,19.9,31,29.71,10.0,Calm,Calm,-,N/A,,Clear,0,2013-03-21 08:53:00
3:53 AM,46.9,19.0,33,29.70,10.0,SE,4.6,-,N/A,,Clear,130,2013-03-21 09:53:00
4:53 AM,46.9,21.9,37,29.68,10.0,ESE,3.5,-,N/A,,Clear,110,2013-03-21 10:53:00
5:53 AM,46.9,21.0,36,29.65,10.0,Calm,Calm,-,N/A,,Clear,0,2013-03-21 11:53:00
6:53 AM,46.0,18.0,33,29.68,10.0,NE,6.9,-,N/A,,Clear,40,2013-03-21 12:53:00
7:53 AM,48.9,21.0,33,29.69,10.0,WSW,3.5,-,N/A,,Clear,240,2013-03-21 13:53:00
8:53 AM,62.1,24.1,23,29.66,10.0,West,3.5,-,N/A,,Clear,280,2013-03-21 14:53:00
9:53 AM,66.0,26.1,22,29.65,10.0,WNW,16.1,21.9,N/A,,Clear,300,2013-03-21 15:53:00
10:53 AM,68.0,23.0,18,29.64,10.0,WNW,16.1,24.2,N/A,,Clear,290,2013-03-21 16:53:00
11:53 AM,70.0,21.9,16,29.60,10.0,West,23.0,29.9,N/A,,Clear,260,2013-03-21 17:53:00
12:53 PM,75.0,16.0,11,29.56,10.0,WNW,24.2,35.7,N/A,,Clear,300,2013-03-21 18:53:00
1:53 PM,75.9,16.0,10,29.53,10.0,West,21.9,34.5,N/A,,Clear,270,2013-03-21 19:53:00
2:53 PM,75.9,15.1,10,29.52,10.0,WNW,15.0,31.1,N/A,,Clear,300,2013-03-21 20:53:00
3:53 PM,77.0,10.9,8,29.51,10.0,West,16.1,24.2,N/A,,Clear,280,2013-03-21 21:53:00
4:53 PM,77.0,3.0,6,29.50,10.0,West,16.1,27.6,N/A,,Clear,270,2013-03-21 22:53:00
5:53 PM,77.0,8.1,7,29.50,10.0,WNW,12.7,-,N/A,,Clear,300,2013-03-21 23:53:00
6:40 PM,73.4,21.2,14,29.69,10.0,WSW,19.6,27.6,N/A,,Clear,250,2013-03-22 00:40:00
6:53 PM,72.0,23.0,16,29.53,10.0,WSW,23.0,28.8,N/A,,Clear,250,2013-03-22 00:53:00
7:53 PM,69.1,21.9,17,29.55,10.0,West,21.9,28.8,N/A,,Clear,260,2013-03-22 01:53:00
8:53 PM,66.0,21.9,19,29.54,10.0,West,18.4,-,N/A,,Clear,270,2013-03-22 02:53:00
9:53 PM,64.9,21.9,19,29.54,10.0,West,18.4,-,N/A,,Clear,280,2013-03-22 03:53:00
10:53 PM,64.0,21.9,20,29.55,10.0,West,19.6,25.3,N/A,,Clear,270,2013-03-22 04:53:00
11:53 PM,61.0,21.9,22,29.57,10.0,ENE,4.6,-,N/A,,Clear,60,2013-03-22 05:53:00